Location: Erp
(42.9417°N, 1.2009°E)
Time: 03:41:37
(UTC+00:00)

SL-16 R/B - Visible Passes

Search period start: 21 April 2026 00:00
Search period end: 01 May 2026 00:00
Orbit: 839 x 848 km, 71.0° (Epoch: 20 April)

Date Brightness Start Highest point End Pass type
(mag) Time Alt. Az. Time Alt. Az. Time Alt. Az.
21 Apr 5.0 04:32:08 10° N 04:35:58 18° NE 04:39:46 10° E visible
21 Apr 3.1 19:24:47 10° SSE 19:29:18 25° ESE 19:33:51 10° NE visible
21 Apr 3.1 21:07:36 10° SW 21:13:03 48° WNW 21:18:34 10° NNE visible
22 Apr 5.1 04:17:43 10° N 04:21:26 17° NE 04:25:08 10° E visible
22 Apr 3.2 19:10:24 10° SSE 19:14:50 24° ESE 19:19:17 10° NE visible
22 Apr 3.1 20:53:04 10° SW 20:58:33 50° WNW 21:04:05 10° NNE visible
22 Apr 5.4 22:43:49 10° NW 22:44:05 10° NW 22:44:22 10° NW visible
23 Apr 5.1 04:03:17 10° N 04:06:54 17° NE 04:10:30 10° E visible
23 Apr 3.0 20:38:32 10° SW 20:44:02 52° WNW 20:49:37 10° NNE visible
23 Apr 5.4 22:28:33 10° NW 22:29:33 10° NW 22:30:32 10° NNW visible
24 Apr 5.2 03:48:52 10° N 03:52:22 16° NE 03:55:51 10° E visible
24 Apr 3.0 20:24:01 10° SW 20:29:33 55° WNW 20:35:08 10° NNE visible
24 Apr 5.4 22:13:37 10° NW 22:15:00 11° NW 22:16:23 10° NNW visible
25 Apr 5.3 03:34:28 10° N 03:37:51 16° NE 03:41:12 10° E visible
25 Apr 2.9 20:09:29 10° SW 20:15:03 57° WNW 20:20:39 10° NNE visible
25 Apr 5.4 21:58:47 10° WNW 22:00:27 11° NW 22:02:08 10° NNW visible
26 Apr 5.3 03:20:03 10° N 03:23:18 15° NE 03:26:33 10° E visible
26 Apr 2.9 19:54:58 10° SW 20:00:33 59° WNW 20:06:11 10° NNE visible
26 Apr 5.5 21:43:59 10° WNW 21:45:55 12° NW 21:47:51 10° NNW visible
27 Apr 5.4 03:05:40 10° N 03:08:46 15° NE 03:11:53 10° ENE visible
27 Apr 2.8 19:40:28 10° SW 19:46:03 62° WNW 19:51:42 10° NNE visible
27 Apr 5.5 21:29:14 10° WNW 21:31:22 12° NW 21:33:31 10° NNW visible
28 Apr 5.4 02:51:15 10° NNE 02:54:14 14° NE 02:57:13 10° ENE visible
28 Apr 2.8 19:25:57 10° SW 19:31:33 64° WNW 19:37:13 10° NNE visible
28 Apr 5.5 21:14:29 10° WNW 21:16:50 12° NW 21:19:11 10° NNW visible
29 Apr 5.5 02:36:52 10° NNE 02:39:43 14° NE 02:42:32 10° ENE visible
29 Apr 2.6 04:19:10 10° NNW 04:24:52 72° ENE 04:30:32 10° SSE visible
29 Apr 2.8 19:11:26 10° SW 19:17:04 67° WNW 19:22:44 10° NNE visible
29 Apr 5.5 20:59:47 10° WNW 21:02:18 13° NW 21:04:50 10° NNW visible
30 Apr 5.5 02:22:29 10° NNE 02:25:10 13° NE 02:27:51 10° ENE visible
30 Apr 2.7 04:04:41 10° NNW 04:10:23 69° ENE 04:16:02 10° SSE visible
30 Apr 5.5 20:45:05 10° WNW 20:47:45 13° NW 20:50:27 10° NNW visible
